Time,TemperatureF,DewpointF,PressureIn,WindDirection,WindDirectionDegrees,WindSpeedMPH,WindSpeedGustMPH,Humidity,HourlyPrecipIn,Conditions,Clouds,dailyrainin,SolarRadiationWatts/m^2,SoftwareType,DateUTC
2013-05-28 00:05:00,52.8,49.6,29.80,South,185,4.0,4.0,89,0.00,,,0.00,0,Wunderground v.1.15,2013-05-28 07:05:00,
2013-05-28 00:11:00,52.9,49.4,29.80,South,185,5.0,5.0,88,0.00,,,0.00,0,Wunderground v.1.15,2013-05-28 07:11:00,
2013-05-28 00:16:00,53.0,49.5,29.80,South,185,3.0,5.0,88,0.00,,,0.00,0,Wunderground v.1.15,2013-05-28 07:16:00,
2013-05-28 00:22:00,53.0,49.5,29.80,SSW,200,4.0,5.0,88,0.00,,,0.00,0,Wunderground v.1.15,2013-05-28 07:22:00,
2013-05-28 00:28:00,53.0,49.8,29.80,SSW,204,3.0,5.0,89,0.00,,,0.00,0,Wunderground v.1.15,2013-05-28 07:28:00,
2013-05-28 00:34:00,52.9,49.7,29.80,South,188,4.0,5.0,89,0.00,,,0.00,0,Wunderground v.1.15,2013-05-28 07:34:00,
2013-05-28 00:40:00,52.9,49.7,29.81,South,187,5.0,5.0,89,0.00,,,0.00,0,Wunderground v.1.15,2013-05-28 07:40:00,
2013-05-28 00:46:00,52.8,49.6,29.81,SSW,194,6.0,6.0,89,0.00,,,0.00,0,Wunderground v.1.15,2013-05-28 07:46:00,
2013-05-28 00:52:00,52.7,49.5,29.81,South,188,4.0,5.0,89,0.00,,,0.00,0,Wunderground v.1.15,2013-05-28 07:52:00,
2013-05-28 00:57:00,52.6,49.4,29.81,South,182,4.0,9.0,89,0.00,,,0.00,0,Wunderground v.1.15,2013-05-28 07:57:00,
2013-05-28 01:03:00,52.5,49.4,29.81,SSW,206,3.0,6.0,89,0.00,,,0.00,0,Wunderground v.1.15,2013-05-28 08:03:00,
2013-05-28 01:09:00,52.4,49.6,29.81,SSW,206,3.0,6.0,90,0.00,,,0.00,0,Wunderground v.1.15,2013-05-28 08:09:00,
2013-05-28 01:15:00,52.3,49.5,29.81,SSW,206,3.0,5.0,90,0.00,,,0.00,0,Wunderground v.1.15,2013-05-28 08:15:00,
2013-05-28 01:21:00,52.2,49.4,29.81,SSW,198,5.0,9.0,90,0.00,,,0.00,0,Wunderground v.1.15,2013-05-28 08:21:00,
2013-05-28 01:27:00,52.1,49.3,29.81,South,190,4.0,9.0,90,0.00,,,0.00,0,Wunderground v.1.15,2013-05-28 08:27:00,
2013-05-28 01:32:00,52.1,49.3,29.81,South,190,3.0,5.0,90,0.00,,,0.00,0,Wunderground v.1.15,2013-05-28 08:32:00,
2013-05-28 01:38:00,52.0,49.5,29.81,South,190,3.0,5.0,91,0.00,,,0.00,0,Wunderground v.1.15,2013-05-28 08:38:00,
2013-05-28 01:44:00,51.9,49.4,29.82,South,190,3.0,4.0,91,0.00,,,0.00,0,Wunderground v.1.15,2013-05-28 08:44:00,
2013-05-28 01:50:00,51.8,49.3,29.81,South,190,3.0,4.0,91,0.00,,,0.00,0,Wunderground v.1.15,2013-05-28 08:50:00,
2013-05-28 01:55:00,51.8,49.3,29.82,South,190,3.0,4.0,91,0.00,,,0.00,0,Wunderground v.1.15,2013-05-28 08:55:00,
2013-05-28 02:00:00,51.8,49.3,29.82,South,190,2.0,2.0,91,0.00,,,0.00,0,Wunderground v.1.15,2013-05-28 09:00:00,
2013-05-28 02:05:00,51.8,49.3,29.82,South,190,1.0,3.0,91,0.00,,,0.00,0,Wunderground v.1.15,2013-05-28 09:05:00,
2013-05-28 02:11:00,51.8,49.3,29.82,South,190,3.0,3.0,91,0.00,,,0.00,0,Wunderground v.1.15,2013-05-28 09:11:00,
2013-05-28 02:15:00,51.8,49.3,29.82,South,190,0.0,3.0,91,0.00,,,0.00,0,Wunderground v.1.15,2013-05-28 09:15:00,
2013-05-28 02:21:00,51.8,49.3,29.82,South,190,0.0,1.0,91,0.00,,,0.00,0,Wunderground v.1.15,2013-05-28 09:21:00,
2013-05-28 02:26:00,51.8,49.3,29.82,South,190,0.0,1.0,91,0.00,,,0.00,0,Wunderground v.1.15,2013-05-28 09:26:00,
2013-05-28 02:31:00,51.8,49.3,29.82,South,190,0.0,0.0,91,0.00,,,0.00,0,Wunderground v.1.15,2013-05-28 09:31:00,
2013-05-28 02:36:00,51.8,49.3,29.82,South,190,0.0,1.0,91,0.00,,,0.00,0,Wunderground v.1.15,2013-05-28 09:36:00,
2013-05-28 02:41:00,51.8,49.3,29.82,South,190,1.0,1.0,91,0.00,,,0.00,0,Wunderground v.1.15,2013-05-28 09:41:00,
2013-05-28 02:46:00,51.8,49.3,29.83,South,190,0.0,1.0,91,0.00,,,0.00,0,Wunderground v.1.15,2013-05-28 09:46:00,
2013-05-28 02:51:00,51.8,49.3,29.82,South,190,1.0,1.0,91,0.00,,,0.00,0,Wunderground v.1.15,2013-05-28 09:51:00,
2013-05-28 02:56:00,51.8,49.3,29.83,South,190,0.0,1.0,91,0.00,,,0.00,0,Wunderground v.1.15,2013-05-28 09:56:00,
2013-05-28 03:01:00,51.8,49.5,29.82,South,190,0.0,0.0,92,0.00,,,0.00,0,Wunderground v.1.15,2013-05-28 10:01:00,
2013-05-28 03:06:00,51.8,49.5,29.82,South,190,0.0,0.0,92,0.00,,,0.00,0,Wunderground v.1.15,2013-05-28 10:06:00,
2013-05-28 03:11:00,51.8,49.5,29.83,South,190,0.0,0.0,92,0.00,,,0.00,0,Wunderground v.1.15,2013-05-28 10:11:00,
2013-05-28 03:16:00,51.8,49.5,29.83,South,190,0.0,0.0,92,0.00,,,0.00,0,Wunderground v.1.15,2013-05-28 10:16:00,
2013-05-28 03:21:00,51.7,49.5,29.83,South,190,0.0,0.0,92,0.00,,,0.00,0,Wunderground v.1.15,2013-05-28 10:21:00,
2013-05-28 03:26:00,51.6,49.4,29.83,South,190,0.0,0.0,92,0.00,,,0.00,0,Wunderground v.1.15,2013-05-28 10:26:00,
2013-05-28 03:31:00,51.7,49.5,29.83,South,190,0.0,0.0,92,0.00,,,0.00,0,Wunderground v.1.15,2013-05-28 10:31:00,
2013-05-28 03:36:00,51.6,49.4,29.83,South,190,0.0,0.0,92,0.00,,,0.00,0,Wunderground v.1.15,2013-05-28 10:36:00,
2013-05-28 03:41:00,51.5,49.3,29.83,South,190,2.0,4.0,92,0.00,,,0.00,0,Wunderground v.1.15,2013-05-28 10:41:00,
2013-05-28 03:46:00,51.7,49.5,29.83,South,190,4.0,5.0,92,0.00,,,0.00,0,Wunderground v.1.15,2013-05-28 10:46:00,
2013-05-28 03:51:00,51.8,49.5,29.83,South,190,3.0,4.0,92,0.00,,,0.00,0,Wunderground v.1.15,2013-05-28 10:51:00,
2013-05-28 03:56:00,51.8,49.5,29.83,South,190,3.0,5.0,92,0.00,,,0.00,0,Wunderground v.1.15,2013-05-28 10:56:00,
2013-05-28 04:01:00,51.8,49.5,29.83,South,190,5.0,5.0,92,0.00,,,0.00,0,Wunderground v.1.15,2013-05-28 11:01:00,
2013-05-28 04:06:00,51.8,49.5,29.83,SW,221,5.0,6.0,92,0.00,,,0.00,0,Wunderground v.1.15,2013-05-28 11:06:00,
2013-05-28 04:11:00,51.8,49.8,29.84,SW,219,2.0,5.0,93,0.00,,,0.00,0,Wunderground v.1.15,2013-05-28 11:11:00,
2013-05-28 04:16:00,51.7,49.7,29.84,SSW,192,5.0,9.0,93,0.00,,,0.01,0,Wunderground v.1.15,2013-05-28 11:16:00,
2013-05-28 04:21:00,51.7,49.7,29.84,SSW,202,5.0,8.0,93,0.00,,,0.01,0,Wunderground v.1.15,2013-05-28 11:21:00,
2013-05-28 04:26:00,51.8,49.8,29.83,South,189,4.0,9.0,93,0.00,,,0.01,0,Wunderground v.1.15,2013-05-28 11:26:00,
2013-05-28 04:31:00,51.8,49.8,29.84,South,191,6.0,6.0,93,0.00,,,0.01,0,Wunderground v.1.15,2013-05-28 11:31:00,
2013-05-28 04:36:00,51.8,49.8,29.84,South,190,4.0,7.0,93,0.00,,,0.01,0,Wunderground v.1.15,2013-05-28 11:36:00,
2013-05-28 04:41:00,51.8,49.8,29.83,South,182,2.0,6.0,93,0.00,,,0.01,0,Wunderground v.1.15,2013-05-28 11:41:00,
2013-05-28 04:46:00,51.7,49.7,29.83,South,182,3.0,6.0,93,0.00,,,0.01,0,Wunderground v.1.15,2013-05-28 11:46:00,
2013-05-28 04:51:00,51.7,49.7,29.83,South,182,2.0,3.0,93,0.00,,,0.01,0,Wunderground v.1.15,2013-05-28 11:51:00,
2013-05-28 04:56:00,51.7,49.7,29.83,South,182,0.0,4.0,93,0.00,,,0.01,0,Wunderground v.1.15,2013-05-28 11:56:00,
2013-05-28 05:01:00,51.7,50.0,29.83,South,182,0.0,1.0,94,0.00,,,0.01,0,Wunderground v.1.15,2013-05-28 12:01:00,
2013-05-28 05:06:00,51.7,50.0,29.84,South,182,3.0,3.0,94,0.00,,,0.01,0,Wunderground v.1.15,2013-05-28 12:06:00,
2013-05-28 05:11:00,51.7,50.0,29.84,South,182,3.0,4.0,94,0.00,,,0.01,0,Wunderground v.1.15,2013-05-28 12:11:00,
2013-05-28 05:16:00,51.7,49.7,29.84,South,182,4.0,5.0,93,0.00,,,0.01,0,Wunderground v.1.15,2013-05-28 12:16:00,
2013-05-28 05:21:00,51.7,49.7,29.84,South,182,3.0,5.0,93,0.00,,,0.01,0,Wunderground v.1.15,2013-05-28 12:21:00,
2013-05-28 05:26:00,51.8,49.8,29.84,South,182,4.0,5.0,93,0.00,,,0.01,0,Wunderground v.1.15,2013-05-28 12:26:00,
2013-05-28 05:31:00,51.7,49.7,29.84,South,182,4.0,6.0,93,0.00,,,0.01,0,Wunderground v.1.15,2013-05-28 12:31:00,
2013-05-28 05:36:00,51.8,49.8,29.84,South,182,2.0,6.0,93,0.00,,,0.01,0,Wunderground v.1.15,2013-05-28 12:36:00,
2013-05-28 05:41:00,51.8,49.8,29.84,SSW,200,4.0,7.0,93,0.00,,,0.01,0,Wunderground v.1.15,2013-05-28 12:41:00,
2013-05-28 05:46:00,51.9,49.9,29.84,SSW,200,5.0,7.0,93,0.00,,,0.01,5,Wunderground v.1.15,2013-05-28 12:46:00,
2013-05-28 05:54:00,51.9,49.9,29.84,SSW,200,3.0,4.0,93,0.00,,,0.01,7,Wunderground v.1.15,2013-05-28 12:54:00,
2013-05-28 05:59:00,51.9,49.9,29.84,SSW,200,5.0,5.0,93,0.00,,,0.01,12,Wunderground v.1.15,2013-05-28 12:59:00,
2013-05-28 06:04:00,51.9,49.9,29.84,SSW,200,4.0,5.0,93,0.00,,,0.01,11,Wunderground v.1.15,2013-05-28 13:04:00,
2013-05-28 06:09:00,51.9,49.9,29.84,SSW,200,5.0,5.0,93,0.00,,,0.01,11,Wunderground v.1.15,2013-05-28 13:09:00,
2013-05-28 06:14:00,51.9,49.9,29.84,SSW,201,4.0,6.0,93,0.00,,,0.01,11,Wunderground v.1.15,2013-05-28 13:14:00,
2013-05-28 06:19:00,51.9,49.9,29.84,SSW,201,3.0,6.0,93,0.00,,,0.01,7,Wunderground v.1.15,2013-05-28 13:19:00,
2013-05-28 06:24:00,51.9,49.9,29.84,SSW,200,4.0,6.0,93,0.00,,,0.01,7,Wunderground v.1.15,2013-05-28 13:24:00,
2013-05-28 06:29:00,51.9,49.9,29.84,SSW,200,5.0,6.0,93,0.00,,,0.01,9,Wunderground v.1.15,2013-05-28 13:29:00,
2013-05-28 06:34:00,51.9,49.9,29.84,SSW,200,2.0,5.0,93,0.00,,,0.01,9,Wunderground v.1.15,2013-05-28 13:34:00,
2013-05-28 06:39:00,52.0,50.0,29.85,SSW,200,3.0,5.0,93,0.00,,,0.01,7,Wunderground v.1.15,2013-05-28 13:39:00,
2013-05-28 06:44:00,52.0,50.0,29.85,SSW,200,3.0,4.0,93,0.00,,,0.01,12,Wunderground v.1.15,2013-05-28 13:44:00,
2013-05-28 06:49:00,52.0,50.0,29.85,SSW,200,3.0,5.0,93,0.00,,,0.01,16,Wunderground v.1.15,2013-05-28 13:49:00,
2013-05-28 06:54:00,52.0,50.0,29.85,SSE,161,6.0,6.0,93,0.00,,,0.01,33,Wunderground v.1.15,2013-05-28 13:54:00,
2013-05-28 06:59:00,52.0,50.0,29.85,SSE,162,4.0,7.0,93,0.00,,,0.01,49,Wunderground v.1.15,2013-05-28 13:59:00,
2013-05-28 07:04:00,52.1,50.1,29.85,South,189,3.0,9.0,93,0.00,,,0.01,60,Wunderground v.1.15,2013-05-28 14:04:00,
2013-05-28 07:09:00,52.2,50.2,29.85,South,186,5.0,10.0,93,0.00,,,0.01,60,Wunderground v.1.15,2013-05-28 14:09:00,
2013-05-28 07:14:00,52.3,50.3,29.85,South,190,4.0,6.0,93,0.00,,,0.01,81,Wunderground v.1.15,2013-05-28 14:14:00,
2013-05-28 07:19:00,52.4,50.4,29.86,South,189,2.0,6.0,93,0.00,,,0.01,91,Wunderground v.1.15,2013-05-28 14:19:00,
2013-05-28 07:24:00,52.5,50.5,29.85,South,180,4.0,5.0,93,0.00,,,0.01,97,Wunderground v.1.15,2013-05-28 14:24:00,
2013-05-28 07:29:00,52.6,50.6,29.85,South,180,4.0,6.0,93,0.00,,,0.01,83,Wunderground v.1.15,2013-05-28 14:29:00,
2013-05-28 07:34:00,52.7,50.7,29.85,SSW,194,3.0,6.0,93,0.00,,,0.01,139,Wunderground v.1.15,2013-05-28 14:34:00,
2013-05-28 07:39:00,52.9,50.9,29.85,SSW,196,5.0,7.0,93,0.00,,,0.01,109,Wunderground v.1.15,2013-05-28 14:39:00,
2013-05-28 07:44:00,53.0,51.0,29.85,SSW,196,3.0,5.0,93,0.00,,,0.01,93,Wunderground v.1.15,2013-05-28 14:44:00,
2013-05-28 07:49:00,53.1,51.1,29.85,SSW,213,4.0,5.0,93,0.00,,,0.01,139,Wunderground v.1.15,2013-05-28 14:49:00,
2013-05-28 07:54:00,53.1,50.8,29.85,SSE,167,4.0,7.0,92,0.00,,,0.01,148,Wunderground v.1.15,2013-05-28 14:54:00,
2013-05-28 07:59:00,53.3,51.3,29.85,SSE,153,4.0,7.0,93,0.00,,,0.01,146,Wunderground v.1.15,2013-05-28 14:59:00,
2013-05-28 08:04:00,53.3,51.0,29.86,SSE,165,4.0,8.0,92,0.00,,,0.01,114,Wunderground v.1.15,2013-05-28 15:04:00,
2013-05-28 08:09:00,53.4,51.1,29.85,SSE,166,5.0,8.0,92,0.00,,,0.01,128,Wunderground v.1.15,2013-05-28 15:09:00,
2013-05-28 08:14:00,53.6,51.3,29.85,South,170,6.0,8.0,92,0.00,,,0.01,155,Wunderground v.1.15,2013-05-28 15:14:00,
2013-05-28 08:19:00,53.8,51.5,29.85,SSE,165,5.0,8.0,92,0.00,,,0.01,186,Wunderground v.1.15,2013-05-28 15:19:00,
2013-05-28 08:24:00,54.1,51.5,29.85,South,184,7.0,7.0,91,0.00,,,0.01,279,Wunderground v.1.15,2013-05-28 15:24:00,
2013-05-28 08:29:00,54.6,52.3,29.85,SSW,197,5.0,8.0,92,0.00,,,0.01,267,Wunderground v.1.15,2013-05-28 15:29:00,
2013-05-28 08:34:00,54.8,52.2,29.85,South,179,6.0,7.0,91,0.00,,,0.01,287,Wunderground v.1.15,2013-05-28 15:34:00,
2013-05-28 08:39:00,55.0,52.1,29.85,SSE,164,4.0,7.0,90,0.00,,,0.01,167,Wunderground v.1.15,2013-05-28 15:39:00,
2013-05-28 08:44:00,55.0,52.1,29.85,SW,214,5.0,6.0,90,0.00,,,0.01,104,Wunderground v.1.15,2013-05-28 15:44:00,
2013-05-28 08:49:00,55.0,51.8,29.85,SSW,195,11.0,11.0,89,0.00,,,0.01,156,Wunderground v.1.15,2013-05-28 15:49:00,
2013-05-28 08:54:00,54.9,51.4,29.85,South,189,12.0,13.0,88,0.00,,,0.01,158,Wunderground v.1.15,2013-05-28 15:54:00,
2013-05-28 08:59:00,55.0,51.8,29.85,SSW,193,9.0,14.0,89,0.00,,,0.01,190,Wunderground v.1.15,2013-05-28 15:59:00,
2013-05-28 09:04:00,55.0,51.5,29.85,SSW,208,8.0,11.0,88,0.00,,,0.01,220,Wunderground v.1.15,2013-05-28 16:04:00,
2013-05-28 09:09:00,55.0,51.5,29.86,SSW,209,4.0,11.0,88,0.00,,,0.01,179,Wunderground v.1.15,2013-05-28 16:09:00,
2013-05-28 09:14:00,54.8,51.6,29.86,SSW,198,7.0,10.0,89,0.00,,,0.01,151,Wunderground v.1.15,2013-05-28 16:14:00,
2013-05-28 09:19:00,54.6,51.7,29.86,SSW,203,6.0,11.0,90,0.00,,,0.01,144,Wunderground v.1.15,2013-05-28 16:19:00,
2013-05-28 09:24:00,54.4,51.5,29.86,SSW,208,8.0,10.0,90,0.00,,,0.01,141,Wunderground v.1.15,2013-05-28 16:24:00,
2013-05-28 09:29:00,54.4,51.2,29.86,South,182,8.0,12.0,89,0.00,,,0.01,183,Wunderground v.1.15,2013-05-28 16:29:00,
2013-05-28 09:34:00,54.5,51.6,29.86,South,169,8.0,12.0,90,0.00,,,0.01,251,Wunderground v.1.15,2013-05-28 16:34:00,
2013-05-28 09:39:00,54.9,51.7,29.86,South,177,9.0,12.0,89,0.00,,,0.01,336,Wunderground v.1.15,2013-05-28 16:39:00,
2013-05-28 09:44:00,55.4,52.2,29.85,SSW,192,10.0,11.0,89,0.00,,,0.01,457,Wunderground v.1.15,2013-05-28 16:44:00,
2013-05-28 09:49:00,56.2,52.7,29.86,South,188,11.0,14.0,88,0.00,,,0.01,450,Wunderground v.1.15,2013-05-28 16:49:00,
2013-05-28 09:54:00,56.5,52.7,29.85,South,175,6.0,11.0,87,0.00,,,0.01,503,Wunderground v.1.15,2013-05-28 16:54:00,
2013-05-28 09:59:00,56.8,53.0,29.85,South,188,6.0,11.0,87,0.00,,,0.01,455,Wunderground v.1.15,2013-05-28 16:59:00,
2013-05-28 10:04:00,56.9,51.8,29.85,SW,218,7.0,13.0,83,0.00,,,0.01,308,Wunderground v.1.15,2013-05-28 17:04:00,
2013-05-28 10:09:00,57.2,52.1,29.86,South,180,8.0,13.0,83,0.00,,,0.01,341,Wunderground v.1.15,2013-05-28 17:09:00,
2013-05-28 10:14:00,57.3,52.2,29.86,SW,217,7.0,10.0,83,0.00,,,0.01,269,Wunderground v.1.15,2013-05-28 17:14:00,
2013-05-28 10:19:00,57.3,51.9,29.85,SSW,213,6.0,11.0,82,0.00,,,0.01,320,Wunderground v.1.15,2013-05-28 17:19:00,
2013-05-28 10:24:00,57.5,51.7,29.85,SSW,200,6.0,10.0,81,0.00,,,0.01,320,Wunderground v.1.15,2013-05-28 17:24:00,
2013-05-28 10:29:00,57.7,52.2,29.85,SSW,211,9.0,13.0,82,0.00,,,0.01,343,Wunderground v.1.15,2013-05-28 17:29:00,
2013-05-28 10:34:00,57.4,52.3,29.85,SW,227,8.0,13.0,83,0.00,,,0.01,387,Wunderground v.1.15,2013-05-28 17:34:00,
2013-05-28 10:39:00,57.0,51.9,29.86,SW,219,7.0,17.0,83,0.00,,,0.01,387,Wunderground v.1.15,2013-05-28 17:39:00,
2013-05-28 10:44:00,56.9,52.4,29.86,WSW,248,7.0,12.0,85,0.00,,,0.01,348,Wunderground v.1.15,2013-05-28 17:44:00,
2013-05-28 10:49:00,56.4,52.6,29.86,WSW,248,11.0,17.0,87,0.00,,,0.01,378,Wunderground v.1.15,2013-05-28 17:49:00,
2013-05-28 10:54:00,56.1,52.6,29.86,SW,215,8.0,14.0,88,0.00,,,0.01,329,Wunderground v.1.15,2013-05-28 17:54:00,
2013-05-28 10:59:00,55.9,52.1,29.86,WSW,243,10.0,14.0,87,0.00,,,0.01,285,Wunderground v.1.15,2013-05-28 17:59:00,
2013-05-28 11:04:00,55.5,52.0,29.86,WSW,242,7.0,14.0,88,0.00,,,0.01,267,Wunderground v.1.15,2013-05-28 18:04:00,
2013-05-28 11:09:00,55.5,51.7,29.86,SSW,204,9.0,14.0,87,0.00,,,0.01,279,Wunderground v.1.15,2013-05-28 18:09:00,
2013-05-28 11:14:00,55.8,51.4,29.87,SSW,198,13.0,15.0,85,0.00,,,0.01,265,Wunderground v.1.15,2013-05-28 18:14:00,
2013-05-28 11:19:00,55.7,50.9,29.87,SSW,194,8.0,15.0,84,0.00,,,0.01,274,Wunderground v.1.15,2013-05-28 18:19:00,
2013-05-28 11:24:00,55.6,51.5,29.87,SSW,204,9.0,12.0,86,0.00,,,0.01,251,Wunderground v.1.15,2013-05-28 18:24:00,
2013-05-28 11:29:00,55.6,51.2,29.87,South,185,11.0,12.0,85,0.00,,,0.01,304,Wunderground v.1.15,2013-05-28 18:29:00,
2013-05-28 11:34:00,55.7,51.3,29.87,South,190,6.0,10.0,85,0.00,,,0.01,279,Wunderground v.1.15,2013-05-28 18:34:00,
2013-05-28 11:39:00,56.0,51.2,29.87,South,179,6.0,10.0,84,0.00,,,0.01,345,Wunderground v.1.15,2013-05-28 18:39:00,
2013-05-28 11:44:00,56.3,51.5,29.87,South,177,9.0,14.0,84,0.00,,,0.01,308,Wunderground v.1.15,2013-05-28 18:44:00,
2013-05-28 11:49:00,56.4,51.3,29.87,South,190,5.0,14.0,83,0.00,,,0.01,336,Wunderground v.1.15,2013-05-28 18:49:00,
2013-05-28 11:54:00,56.6,51.2,29.87,South,179,11.0,11.0,82,0.00,,,0.01,403,Wunderground v.1.15,2013-05-28 18:54:00,
2013-05-28 11:59:00,56.9,51.5,29.87,SE,133,6.0,11.0,82,0.00,,,0.01,438,Wunderground v.1.15,2013-05-28 18:59:00,
2013-05-28 12:04:00,57.2,52.1,29.87,SSE,166,6.0,9.0,83,0.00,,,0.01,455,Wunderground v.1.15,2013-05-28 19:04:00,
2013-05-28 12:09:00,57.4,51.6,29.87,SE,137,8.0,10.0,81,0.00,,,0.01,420,Wunderground v.1.15,2013-05-28 19:09:00,
2013-05-28 12:14:00,57.7,52.2,29.87,SSE,159,9.0,11.0,82,0.00,,,0.01,552,Wunderground v.1.15,2013-05-28 19:14:00,
2013-05-28 12:20:00,58.4,53.6,29.87,SE,144,9.0,11.0,84,0.00,,,0.01,1023,Wunderground v.1.15,2013-05-28 19:20:00,
2013-05-28 12:24:00,59.1,53.3,29.87,SSE,161,7.0,12.0,81,0.00,,,0.01,517,Wunderground v.1.15,2013-05-28 19:24:00,
2013-05-28 12:29:00,59.4,51.8,29.87,South,170,7.0,15.0,76,0.00,,,0.01,510,Wunderground v.1.15,2013-05-28 19:29:00,
2013-05-28 12:34:00,59.3,53.1,29.87,SSE,161,12.0,16.0,80,0.00,,,0.01,476,Wunderground v.1.15,2013-05-28 19:34:00,
2013-05-28 12:39:00,59.4,52.2,29.87,South,169,9.0,16.0,77,0.00,,,0.01,512,Wunderground v.1.15,2013-05-28 19:39:00,
2013-05-28 12:44:00,59.4,51.8,29.87,SSE,152,10.0,15.0,76,0.00,,,0.01,229,Wunderground v.1.15,2013-05-28 19:44:00,
2013-05-28 12:49:00,59.0,52.1,29.87,SE,144,10.0,15.0,78,0.00,,,0.01,255,Wunderground v.1.15,2013-05-28 19:49:00,
2013-05-28 12:54:00,58.6,52.1,29.87,SSE,158,9.0,17.0,79,0.00,,,0.01,290,Wunderground v.1.15,2013-05-28 19:54:00,
2013-05-28 12:59:00,58.3,52.2,29.88,SSE,163,8.0,17.0,80,0.00,,,0.01,329,Wunderground v.1.15,2013-05-28 19:59:00,
2013-05-28 13:04:00,58.4,52.3,29.88,South,179,13.0,16.0,80,0.00,,,0.01,413,Wunderground v.1.15,2013-05-28 20:04:00,
2013-05-28 13:09:00,58.3,52.5,29.88,South,172,11.0,16.0,81,0.00,,,0.01,348,Wunderground v.1.15,2013-05-28 20:09:00,
2013-05-28 13:14:00,58.4,52.6,29.88,South,175,7.0,15.0,81,0.00,,,0.01,350,Wunderground v.1.15,2013-05-28 20:14:00,
2013-05-28 13:19:00,58.4,52.6,29.88,SSE,167,8.0,15.0,81,0.00,,,0.01,396,Wunderground v.1.15,2013-05-28 20:19:00,
2013-05-28 13:24:00,58.5,51.7,29.88,South,178,7.0,14.0,78,0.00,,,0.01,633,Wunderground v.1.15,2013-05-28 20:24:00,
2013-05-28 13:29:00,58.8,52.3,29.88,SSE,154,5.0,14.0,79,0.00,,,0.01,506,Wunderground v.1.15,2013-05-28 20:29:00,
2013-05-28 13:34:00,59.0,52.5,29.88,South,176,8.0,13.0,79,0.00,,,0.01,369,Wunderground v.1.15,2013-05-28 20:34:00,
2013-05-28 13:39:00,58.6,52.1,29.88,South,182,8.0,13.0,79,0.00,,,0.01,262,Wunderground v.1.15,2013-05-28 20:39:00,
2013-05-28 13:44:00,58.5,52.4,29.88,South,173,7.0,10.0,80,0.00,,,0.01,255,Wunderground v.1.15,2013-05-28 20:44:00,
2013-05-28 13:49:00,58.4,52.6,29.88,WSW,257,10.0,13.0,81,0.00,,,0.01,169,Wunderground v.1.15,2013-05-28 20:49:00,
2013-05-28 13:54:00,57.2,52.4,29.88,WSW,237,6.0,15.0,84,0.00,,,0.01,253,Wunderground v.1.15,2013-05-28 20:54:00,
2013-05-28 13:59:00,56.7,52.6,29.88,SW,219,6.0,15.0,86,0.00,,,0.02,316,Wunderground v.1.15,2013-05-28 20:59:00,
2013-05-28 14:04:00,57.2,53.7,29.88,SSW,206,5.0,8.0,88,0.00,,,0.02,977,Wunderground v.1.15,2013-05-28 21:04:00,
2013-05-28 14:09:00,58.6,54.4,29.88,SW,231,7.0,9.0,86,0.00,,,0.02,895,Wunderground v.1.15,2013-05-28 21:09:00,
2013-05-28 14:14:00,59.6,53.4,29.87,SW,221,6.0,10.0,80,0.00,,,0.02,933,Wunderground v.1.15,2013-05-28 21:14:00,
2013-05-28 14:19:00,60.0,53.5,29.88,SW,225,2.0,10.0,79,0.00,,,0.02,1046,Wunderground v.1.15,2013-05-28 21:19:00,
2013-05-28 14:24:00,60.1,53.2,29.87,WSW,240,4.0,8.0,78,0.00,,,0.02,420,Wunderground v.1.15,2013-05-28 21:24:00,
2013-05-28 14:29:00,60.0,53.5,29.87,SW,216,7.0,9.0,79,0.00,,,0.02,322,Wunderground v.1.15,2013-05-28 21:29:00,
2013-05-28 14:34:00,60.6,53.7,29.87,SW,221,4.0,8.0,78,0.00,,,0.02,1023,Wunderground v.1.15,2013-05-28 21:34:00,
2013-05-28 14:39:00,61.3,53.7,29.87,SW,231,7.0,11.0,76,0.00,,,0.02,1132,Wunderground v.1.15,2013-05-28 21:39:00,
2013-05-28 14:44:00,61.1,53.8,29.87,WSW,245,7.0,12.0,77,0.00,,,0.02,264,Wunderground v.1.15,2013-05-28 21:44:00,
2013-05-28 14:49:00,60.7,53.4,29.87,SW,215,4.0,12.0,77,0.00,,,0.02,195,Wunderground v.1.15,2013-05-28 21:49:00,
2013-05-28 14:54:00,60.4,52.1,29.87,WSW,237,6.0,12.0,74,0.00,,,0.02,276,Wunderground v.1.15,2013-05-28 21:54:00,
2013-05-28 14:59:00,60.4,52.1,29.87,SSW,213,7.0,13.0,74,0.00,,,0.02,253,Wunderground v.1.15,2013-05-28 21:59:00,
2013-05-28 15:04:00,60.9,52.6,29.86,SSW,196,9.0,12.0,74,0.00,,,0.02,299,Wunderground v.1.15,2013-05-28 22:04:00,
2013-05-28 15:09:00,61.6,53.2,29.86,South,173,8.0,12.0,74,0.00,,,0.02,353,Wunderground v.1.15,2013-05-28 22:09:00,
2013-05-28 15:14:00,61.0,54.1,29.86,SSE,163,6.0,13.0,78,0.00,,,0.02,243,Wunderground v.1.15,2013-05-28 22:14:00,
2013-05-28 15:19:00,60.6,53.7,29.86,SSE,160,5.0,14.0,78,0.00,,,0.02,359,Wunderground v.1.15,2013-05-28 22:19:00,
2013-05-28 15:24:00,60.3,53.4,29.86,South,188,10.0,12.0,78,0.00,,,0.02,262,Wunderground v.1.15,2013-05-28 22:24:00,
2013-05-28 15:29:00,59.8,53.3,29.87,SSE,153,7.0,13.0,79,0.00,,,0.02,218,Wunderground v.1.15,2013-05-28 22:29:00,
2013-05-28 15:34:00,59.6,52.7,29.87,South,180,7.0,11.0,78,0.00,,,0.02,179,Wunderground v.1.15,2013-05-28 22:34:00,
2013-05-28 15:39:00,59.5,52.6,29.87,South,181,6.0,12.0,78,0.00,,,0.02,192,Wunderground v.1.15,2013-05-28 22:39:00,
2013-05-28 15:44:00,59.3,52.8,29.87,South,169,5.0,10.0,79,0.00,,,0.02,220,Wunderground v.1.15,2013-05-28 22:44:00,
2013-05-28 15:49:00,59.2,53.4,29.86,SSW,192,4.0,10.0,81,0.00,,,0.02,214,Wunderground v.1.15,2013-05-28 22:49:00,
2013-05-28 15:54:00,59.2,53.4,29.87,South,178,14.0,14.0,81,0.00,,,0.02,165,Wunderground v.1.15,2013-05-28 22:54:00,
2013-05-28 15:59:00,58.2,52.7,29.87,South,188,10.0,17.0,82,0.00,,,0.03,134,Wunderground v.1.15,2013-05-28 22:59:00,
2013-05-28 16:04:00,57.3,52.5,29.87,South,182,5.0,12.0,84,0.16,,,0.04,258,Wunderground v.1.15,2013-05-28 23:04:00,
2013-05-28 16:09:00,57.3,53.1,29.87,South,190,4.0,12.0,86,0.07,,,0.04,301,Wunderground v.1.15,2013-05-28 23:09:00,
2013-05-28 16:14:00,57.6,53.8,29.87,SW,223,5.0,6.0,87,0.05,,,0.04,332,Wunderground v.1.15,2013-05-28 23:14:00,
2013-05-28 16:19:00,57.8,53.3,29.88,SSW,211,4.0,8.0,85,0.00,,,0.04,278,Wunderground v.1.15,2013-05-28 23:19:00,
2013-05-28 16:24:00,58.1,53.9,29.88,SW,215,3.0,5.0,86,0.00,,,0.04,251,Wunderground v.1.15,2013-05-28 23:24:00,
2013-05-28 16:29:00,58.3,53.8,29.87,South,190,4.0,6.0,85,0.00,,,0.04,169,Wunderground v.1.15,2013-05-28 23:29:00,
2013-05-28 16:34:00,58.4,53.6,29.87,SSW,200,4.0,5.0,84,0.00,,,0.04,128,Wunderground v.1.15,2013-05-28 23:34:00,
2013-05-28 16:39:00,58.4,53.9,29.87,SSW,200,5.0,5.0,85,0.00,,,0.04,107,Wunderground v.1.15,2013-05-28 23:39:00,
2013-05-28 16:44:00,58.5,54.0,29.87,SSW,200,3.0,4.0,85,0.00,,,0.04,114,Wunderground v.1.15,2013-05-28 23:44:00,
2013-05-28 16:49:00,58.4,53.9,29.87,SSW,200,3.0,5.0,85,0.00,,,0.04,97,Wunderground v.1.15,2013-05-28 23:49:00,
2013-05-28 16:54:00,58.4,53.3,29.87,WSW,254,5.0,7.0,83,0.00,,,0.04,123,Wunderground v.1.15,2013-05-28 23:54:00,
2013-05-28 17:00:00,58.2,53.1,29.87,WSW,240,3.0,7.0,83,0.00,,,0.04,116,Wunderground v.1.15,2013-05-29 00:00:00,
2013-05-28 17:05:00,58.2,53.1,29.87,SW,233,4.0,5.0,83,0.00,,,0.04,95,Wunderground v.1.15,2013-05-29 00:05:00,
2013-05-28 17:10:00,58.2,52.1,29.87,WSW,240,5.0,6.0,80,0.00,,,0.04,79,Wunderground v.1.15,2013-05-29 00:10:00,
2013-05-28 17:15:00,58.1,52.3,29.86,SW,232,3.0,6.0,81,0.00,,,0.04,100,Wunderground v.1.15,2013-05-29 00:15:00,
2013-05-28 17:20:00,58.1,52.0,29.86,WSW,251,3.0,8.0,80,0.00,,,0.04,192,Wunderground v.1.15,2013-05-29 00:20:00,
2013-05-28 17:25:00,58.4,52.3,29.86,West,266,5.0,6.0,80,0.00,,,0.04,295,Wunderground v.1.15,2013-05-29 00:25:00,
2013-05-28 17:30:00,59.0,53.2,29.85,SW,217,2.0,6.0,81,0.00,,,0.04,257,Wunderground v.1.15,2013-05-29 00:30:00,
2013-05-28 17:35:00,59.6,52.4,29.85,SW,217,6.0,7.0,77,0.00,,,0.04,253,Wunderground v.1.15,2013-05-29 00:35:00,
2013-05-28 17:40:00,59.6,52.4,29.85,SW,223,6.0,10.0,77,0.00,,,0.04,258,Wunderground v.1.15,2013-05-29 00:40:00,
2013-05-28 17:45:00,59.5,51.9,29.85,WSW,246,6.0,10.0,76,0.00,,,0.04,176,Wunderground v.1.15,2013-05-29 00:45:00,
2013-05-28 17:50:00,59.4,51.5,29.85,WSW,257,5.0,10.0,75,0.00,,,0.04,204,Wunderground v.1.15,2013-05-29 00:50:00,
2013-05-28 17:55:00,59.2,50.9,29.85,WSW,238,10.0,11.0,74,0.00,,,0.04,148,Wunderground v.1.15,2013-05-29 00:55:00,
2013-05-28 18:00:00,59.0,50.4,29.85,WSW,240,4.0,11.0,73,0.00,,,0.04,128,Wunderground v.1.15,2013-05-29 01:00:00,
2013-05-28 18:05:00,58.7,50.8,29.85,WSW,239,3.0,8.0,75,0.00,,,0.04,100,Wunderground v.1.15,2013-05-29 01:05:00,
2013-05-28 18:10:00,58.6,51.1,29.85,West,266,5.0,8.0,76,0.00,,,0.04,74,Wunderground v.1.15,2013-05-29 01:10:00,
2013-05-28 18:15:00,58.5,50.6,29.84,West,274,2.0,6.0,75,0.00,,,0.04,77,Wunderground v.1.15,2013-05-29 01:15:00,
2013-05-28 18:20:00,58.5,51.0,29.84,West,274,4.0,6.0,76,0.00,,,0.04,86,Wunderground v.1.15,2013-05-29 01:20:00,
2013-05-28 18:25:00,58.5,51.0,29.84,West,274,2.0,6.0,76,0.00,,,0.04,105,Wunderground v.1.15,2013-05-29 01:25:00,
2013-05-28 18:30:00,58.5,50.6,29.84,West,268,5.0,7.0,75,0.00,,,0.04,130,Wunderground v.1.15,2013-05-29 01:30:00,
2013-05-28 18:35:00,58.6,51.1,29.83,West,275,5.0,6.0,76,0.00,,,0.04,176,Wunderground v.1.15,2013-05-29 01:35:00,
2013-05-28 18:40:00,58.5,50.2,29.83,West,272,6.0,9.0,74,0.00,,,0.04,162,Wunderground v.1.15,2013-05-29 01:40:00,
2013-05-28 18:45:00,58.5,50.6,29.83,WSW,245,3.0,8.0,75,0.00,,,0.04,169,Wunderground v.1.15,2013-05-29 01:45:00,
2013-05-28 18:50:00,58.6,50.3,29.82,WSW,257,5.0,9.0,74,0.00,,,0.04,160,Wunderground v.1.15,2013-05-29 01:50:00,
2013-05-28 18:55:00,58.6,50.3,29.82,West,269,6.0,8.0,74,0.00,,,0.04,171,Wunderground v.1.15,2013-05-29 01:55:00,
2013-05-28 19:00:00,58.5,49.9,29.82,WSW,250,5.0,9.0,73,0.00,,,0.04,114,Wunderground v.1.15,2013-05-29 02:00:00,
2013-05-28 19:05:00,58.3,49.7,29.82,West,269,5.0,11.0,73,0.00,,,0.04,79,Wunderground v.1.15,2013-05-29 02:05:00,
2013-05-28 19:10:00,58.0,50.1,29.82,West,262,3.0,11.0,75,0.00,,,0.04,62,Wunderground v.1.15,2013-05-29 02:10:00,
2013-05-28 19:15:00,57.8,49.6,29.82,West,269,3.0,8.0,74,0.00,,,0.04,72,Wunderground v.1.15,2013-05-29 02:15:00,
2013-05-28 19:20:00,57.6,49.0,29.82,WSW,239,6.0,10.0,73,0.00,,,0.04,58,Wunderground v.1.15,2013-05-29 02:20:00,
2013-05-28 19:25:00,57.4,49.5,29.82,WSW,244,4.0,10.0,75,0.00,,,0.04,32,Wunderground v.1.15,2013-05-29 02:25:00,
2013-05-28 19:30:00,57.3,49.4,29.81,West,280,5.0,10.0,75,0.00,,,0.04,35,Wunderground v.1.15,2013-05-29 02:30:00,
2013-05-28 19:35:00,57.2,49.3,29.81,West,271,5.0,7.0,75,0.00,,,0.04,39,Wunderground v.1.15,2013-05-29 02:35:00,
2013-05-28 19:40:00,57.1,49.2,29.81,WSW,248,3.0,7.0,75,0.00,,,0.04,47,Wunderground v.1.15,2013-05-29 02:40:00,
2013-05-28 19:45:00,56.9,49.4,29.81,West,259,3.0,5.0,76,0.00,,,0.04,47,Wunderground v.1.15,2013-05-29 02:45:00,
2013-05-28 19:50:00,56.8,49.3,29.81,WSW,254,4.0,10.0,76,0.00,,,0.04,35,Wunderground v.1.15,2013-05-29 02:50:00,
2013-05-28 19:55:00,56.5,49.0,29.81,West,261,4.0,7.0,76,0.00,,,0.04,21,Wunderground v.1.15,2013-05-29 02:55:00,
2013-05-28 20:00:00,56.4,49.3,29.81,West,267,3.0,7.0,77,0.00,,,0.04,18,Wunderground v.1.15,2013-05-29 03:00:00,
2013-05-28 20:05:00,56.3,49.2,29.81,West,260,5.0,7.0,77,0.00,,,0.04,16,Wunderground v.1.15,2013-05-29 03:05:00,
2013-05-28 20:10:00,56.2,49.4,29.81,West,264,3.0,8.0,78,0.00,,,0.04,14,Wunderground v.1.15,2013-05-29 03:10:00,
2013-05-28 20:15:00,56.1,49.3,29.80,WSW,258,4.0,7.0,78,0.00,,,0.04,19,Wunderground v.1.15,2013-05-29 03:15:00,
2013-05-28 20:20:00,55.9,49.1,29.80,West,264,3.0,7.0,78,0.00,,,0.04,14,Wunderground v.1.15,2013-05-29 03:20:00,
2013-05-28 20:25:00,55.8,49.4,29.80,West,264,2.0,6.0,79,0.00,,,0.04,12,Wunderground v.1.15,2013-05-29 03:25:00,
2013-05-28 20:30:00,55.7,49.3,29.80,West,264,3.0,6.0,79,0.00,,,0.04,7,Wunderground v.1.15,2013-05-29 03:30:00,
2013-05-28 20:35:00,55.6,48.8,29.80,West,264,2.0,3.0,78,0.00,,,0.04,5,Wunderground v.1.15,2013-05-29 03:35:00,
2013-05-28 20:40:00,55.5,49.4,29.80,West,264,0.0,1.0,80,0.00,,,0.04,5,Wunderground v.1.15,2013-05-29 03:40:00,
2013-05-28 20:45:00,55.4,49.0,29.80,West,264,0.0,2.0,79,0.00,,,0.04,0,Wunderground v.1.15,2013-05-29 03:45:00,
2013-05-28 20:50:00,55.2,49.1,29.79,West,264,1.0,1.0,80,0.00,,,0.04,0,Wunderground v.1.15,2013-05-29 03:50:00,
2013-05-28 20:55:00,54.9,49.2,29.79,West,264,1.0,2.0,81,0.00,,,0.04,0,Wunderground v.1.15,2013-05-29 03:55:00,
2013-05-28 21:00:00,54.6,48.9,29.79,West,264,0.0,0.0,81,0.00,,,0.04,0,Wunderground v.1.15,2013-05-29 04:00:00,
2013-05-28 21:01:00,54.6,48.9,29.79,West,264,0.0,0.0,81,0.00,,,0.04,0,Wunderground v.1.15,2013-05-29 04:01:00,
2013-05-28 21:06:00,54.3,49.2,29.78,West,264,0.0,2.0,83,0.00,,,0.04,0,Wunderground v.1.15,2013-05-29 04:06:00,
2013-05-28 21:11:00,54.2,49.5,29.79,West,264,0.0,0.0,84,0.00,,,0.04,0,Wunderground v.1.15,2013-05-29 04:11:00,
2013-05-28 21:16:00,54.0,48.3,29.79,West,264,0.0,3.0,81,0.00,,,0.04,0,Wunderground v.1.15,2013-05-29 04:16:00,
2013-05-28 21:22:00,53.9,48.9,29.78,West,264,0.0,1.0,83,0.00,,,0.04,0,Wunderground v.1.15,2013-05-29 04:22:00,
2013-05-28 21:27:00,53.7,49.0,29.78,West,264,0.0,1.0,84,0.00,,,0.04,0,Wunderground v.1.15,2013-05-29 04:27:00,
2013-05-28 21:32:00,53.2,48.5,29.78,West,264,2.0,2.0,84,0.00,,,0.04,0,Wunderground v.1.15,2013-05-29 04:32:00,
2013-05-28 21:37:00,52.9,48.8,29.77,West,264,2.0,2.0,86,0.00,,,0.04,0,Wunderground v.1.15,2013-05-29 04:37:00,
2013-05-28 21:42:00,52.6,48.8,29.78,West,264,2.0,2.0,87,0.00,,,0.04,0,Wunderground v.1.15,2013-05-29 04:42:00,
2013-05-28 21:47:00,52.3,48.5,29.78,West,264,1.0,2.0,87,0.00,,,0.04,0,Wunderground v.1.15,2013-05-29 04:47:00,
2013-05-28 21:52:00,52.1,48.3,29.79,West,264,0.0,1.0,87,0.00,,,0.04,0,Wunderground v.1.15,2013-05-29 04:52:00,
2013-05-28 21:57:00,52.0,48.6,29.79,West,264,0.0,2.0,88,0.00,,,0.04,0,Wunderground v.1.15,2013-05-29 04:57:00,
2013-05-28 22:02:00,52.0,48.9,29.79,West,264,0.0,0.0,89,0.00,,,0.04,0,Wunderground v.1.15,2013-05-29 05:02:00,
2013-05-28 22:07:00,52.1,49.0,29.78,West,264,0.0,0.0,89,0.00,,,0.04,0,Wunderground v.1.15,2013-05-29 05:07:00,
2013-05-28 22:12:00,52.3,49.2,29.78,West,264,1.0,2.0,89,0.00,,,0.04,0,Wunderground v.1.15,2013-05-29 05:12:00,
2013-05-28 22:17:00,52.3,48.9,29.78,West,264,0.0,2.0,88,0.00,,,0.04,0,Wunderground v.1.15,2013-05-29 05:17:00,
2013-05-28 22:22:00,52.3,48.9,29.77,NNW,339,0.0,4.0,88,0.00,,,0.04,0,Wunderground v.1.15,2013-05-29 05:22:00,
2013-05-28 22:27:00,52.1,49.0,29.77,NNW,339,1.0,4.0,89,0.00,,,0.04,0,Wunderground v.1.15,2013-05-29 05:27:00,
2013-05-28 22:32:00,52.0,48.9,29.77,NNW,339,0.0,0.0,89,0.00,,,0.04,0,Wunderground v.1.15,2013-05-29 05:32:00,
2013-05-28 22:37:00,51.9,49.1,29.77,NNW,339,0.0,1.0,90,0.00,,,0.04,0,Wunderground v.1.15,2013-05-29 05:37:00,
2013-05-28 22:42:00,51.8,49.0,29.77,NNW,339,0.0,0.0,90,0.00,,,0.04,0,Wunderground v.1.15,2013-05-29 05:42:00,
2013-05-28 22:47:00,51.8,49.0,29.77,NW,304,2.0,4.0,90,0.00,,,0.04,0,Wunderground v.1.15,2013-05-29 05:47:00,
2013-05-28 22:52:00,51.8,49.3,29.77,NW,304,0.0,2.0,91,0.00,,,0.04,0,Wunderground v.1.15,2013-05-29 05:52:00,
2013-05-28 22:57:00,51.8,49.0,29.77,NW,304,1.0,2.0,90,0.00,,,0.04,0,Wunderground v.1.15,2013-05-29 05:57:00,
2013-05-28 23:02:00,51.9,49.1,29.76,NW,304,1.0,2.0,90,0.00,,,0.04,0,Wunderground v.1.15,2013-05-29 06:02:00,
2013-05-28 23:07:00,52.0,49.2,29.76,NW,304,0.0,2.0,90,0.00,,,0.04,0,Wunderground v.1.15,2013-05-29 06:07:00,
2013-05-28 23:12:00,51.9,49.1,29.76,NW,304,0.0,1.0,90,0.00,,,0.04,0,Wunderground v.1.15,2013-05-29 06:12:00,
2013-05-28 23:17:00,51.8,49.0,29.76,NW,304,0.0,1.0,90,0.00,,,0.04,0,Wunderground v.1.15,2013-05-29 06:17:00,
2013-05-28 23:22:00,51.8,49.0,29.75,NW,304,0.0,0.0,90,0.00,,,0.04,0,Wunderground v.1.15,2013-05-29 06:22:00,
2013-05-28 23:27:00,51.7,48.9,29.75,NW,304,0.0,0.0,90,0.00,,,0.04,0,Wunderground v.1.15,2013-05-29 06:27:00,
2013-05-28 23:32:00,51.7,48.9,29.75,NW,304,0.0,0.0,90,0.00,,,0.04,0,Wunderground v.1.15,2013-05-29 06:32:00,
2013-05-28 23:37:00,51.6,49.1,29.75,NW,304,0.0,0.0,91,0.00,,,0.04,0,Wunderground v.1.15,2013-05-29 06:37:00,
2013-05-28 23:42:00,51.5,48.7,29.75,NW,304,0.0,0.0,90,0.00,,,0.04,0,Wunderground v.1.15,2013-05-29 06:42:00,
2013-05-28 23:47:00,51.5,49.0,29.74,NW,304,0.0,2.0,91,0.00,,,0.04,0,Wunderground v.1.15,2013-05-29 06:47:00,
2013-05-28 23:54:00,51.5,49.0,29.74,NW,304,0.0,0.0,91,0.00,,,0.04,0,Wunderground v.1.15,2013-05-29 06:54:00,